Temp
7 7 7 7 7 7 7 8 8 8 8 9 9 9 9 10 11 12 13 14 15 15 16 17 18 19 19 19 18 18 18 17 17 17 17 17 17 18 18 18 18 19 19 19 19 19 19 19 18 19 19 19 19 19 19 19 19 19 19 18 18 18 18 18 18 18 18 18 18
7 7 7 7 7 7 7 7 8 8 8 8 9 9 9 10 10 11 12 13 14 15 15 16 17 18 19 19 18 18 18 17 17 17 17 17 17 18 18 18 18 18 19 19 19 19 19 19 18 19 19 19 19 18 18 19 19 19 19 18 18 18 18 18 18 18 18 18 18
7 7 7 7 7 7 7 7 7 8 8 8 8 9 9 9 10 11 12 13 14 14 15 15 16 17 18 19 19 18 18 18 17 17 17 17 17 18 18 18 18 18 18 19 19 19 19 19 19 18 18 18 18 18 18 19 19 19 19 18 18 18 18 18 18 18 18 18 17
8 8 7 7 7 7 7 7 7 7 8 8 8 8 9 9 9 10 11 12 13 14 14 14 15 17 18 19 19 18 18 18 18 17 17 17 17 18 18 18 18 18 18 18 19 19 19 19 19 18 18 18 18 18 19 19 19 19 18 18 18 18 18 18 17 17 17 17 17
8 8 8 7 7 7 7 7 7 7 7 8 8 8 8 9 9 10 11 11 12 13 13 14 15 16 18 19 19 19 18 18 18 18 17 17 17 17 18 18 18 18 18 18 18 19 19 18 18 18 18 18 18 19 19 19 19 19 18 18 18 18 18 17 17 17 17 17 17
9 9 8 8 7 7 7 7 7 7 7 7 7 8 8 9 9 10 10 11 12 13 13 14 14 15 17 18 18 18 18 18 18 18 18 17 17 17 18 18 18 18 18 18 18 18 18 18 18 18 17 18 18 19 19 19 19 19 18 18 18 18 17 17 17 17 16 16 16
9 9 9 8 7 7 7 7 7 7 7 7 7 8 8 8 9 10 10 11 12 13 13 14 14 15 15 16 16 16 17 18 18 18 18 17 17 17 18 18 18 18 18 18 18 18 18 18 17 17 17 17 18 18 19 19 19 18 18 18 18 18 17 17 17 17 16 16 16
9 9 8 8 7 7 7 7 6 6 6 6 7 7 8 8 9 10 10 11 12 13 13 14 14 14 14 15 15 15 16 18 18 18 18 17 17 17 18 18 18 18 18 18 18 18 18 17 17 16 16 17 17 18 19 19 18 18 18 18 18 18 17 17 17 16 16 16 16
10 9 8 8 7 7 7 6 6 6 6 6 7 7 8 9 9 10 10 11 12 13 13 13 14 14 14 14 14 15 16 17 18 18 18 18 17 17 18 18 18 18 18 18 18 18 18 16 16 16 16 17 17 18 18 18 18 18 18 18 18 17 17 17 17 16 16 16 16
10 9 8 7 7 7 6 6 6 6 6 6 7 7 8 9 9 10 10 11 12 12 13 13 14 14 14 13 14 14 15 17 17 18 18 18 18 18 18 18 18 18 18 18 18 18 17 16 15 16 16 17 18 18 18 18 18 18 18 18 18 17 17 17 17 16 16 16 15
10 10 9 8 7 6 6 6 6 6 6 6 7 7 8 9 9 10 10 11 12 12 12 13 13 14 13 13 14 14 15 16 17 18 18 18 17 18 18 18 18 18 18 18 18 17 16 16 16 16 17 17 18 18 18 18 18 18 18 18 18 17 17 16 16 16 16 16 15
10 10 9 8 7 7 6 6 6 6 6 7 7 8 8 8 9 10 10 11 11 12 12 13 13 13 13 13 14 14 14 15 17 17 18 17 17 17 18 18 18 18 18 18 18 17 16 16 17 17 17 17 17 18 18 18 18 18 18 18 18 17 17 16 16 16 16 16 15
10 10 10 9 8 7 6 6 6 6 7 7 7 8 8 8 9 10 10 11 11 12 12 13 13 13 13 13 13 14 14 15 16 17 17 17 17 17 17 18 18 18 18 18 18 17 17 17 17 17 17 17 17 18 18 17 17 17 17 17 17 17 17 16 16 16 16 16 15
10 10 10 9 8 7 7 6 6 7 7 7 8 8 8 8 9 10 10 11 11 12 12 12 13 13 13 13 13 13 14 15 16 16 17 17 17 17 17 17 18 18 18 18 17 17 17 17 17 17 18 18 17 17 17 17 17 17 17 17 17 17 17 17 16 16 15 15 15
10 10 10 10 9 8 7 7 7 7 7 8 8 8 8 9 9 10 10 11 11 11 12 12 12 13 13 13 13 13 13 15 15 16 16 17 17 17 17 17 17 17 17 17 17 17 16 16 17 17 17 17 17 17 17 17 16 16 17 17 17 17 17 17 16 16 15 15 15
10 10 10 10 9 9 8 8 8 8 8 8 8 9 9 9 10 10 11 11 11 11 12 12 13 13 13 13 13 12 13 14 15 15 16 16 17 17 17 17 17 17 17 17 16 16 16 16 16 17 17 17 17 17 17 16 16 16 16 16 16 17 17 17 17 16 16 15 15
10 10 10 10 10 10 10 9 9 9 9 9 9 9 10 10 11 11 11 11 11 11 12 12 12 13 13 12 12 12 13 14 14 15 16 16 17 17 17 17 17 17 16 16 16 15 15 16 16 16 16 17 17 17 16 16 16 16 16 16 16 16 16 17 17 17 16 15 15
10 11 10 10 10 10 10 10 10 10 10 10 10 10 10 11 11 11 11 11 11 12 12 12 13 13 13 13 13 13 13 13 14 15 16 16 16 16 16 16 16 16 16 15 15 15 15 15 15 16 16 16 16 16 16 16 16 15 15 15 16 16 16 16 16 17 16 16 15
10 10 10 11 11 11 11 11 11 11 11 10 10 11 11 11 11 11 11 11 12 12 12 13 13 13 13 13 13 14 14 14 15 15 15 16 16 16 16 16 16 15 15 15 15 15 15 15 15 15 16 16 16 16 16 16 16 15 15 15 15 15 16 16 16 16 16 16 16
10 10 10 11 11 11 11 11 11 11 12 11 11 11 11 11 11 11 12 12 12 12 13 13 13 13 14 14 14 15 15 15 15 15 15 15 15 15 15 15 15 15 14 14 14 14 14 14 15 15 16 16 16 16 15 15 15 15 15 15 15 15 15 15 16 16 16 16 16
11 10 10 10 10 10 11 11 11 12 12 12 12 12 12 12 12 12 12 13 13 13 13 14 14 14 14 14 14 15 15 15 15 15 14 14 14 15 15 14 14 14 13 13 14 14 14 15 15 16 16 16 15 15 15 15 15 15 15 15 15 15 15 15 15 15 16 16 15
10 10 10 10 11 11 11 11 11 12 12 12 12 13 13 13 12 12 12 13 13 14 14 14 14 14 14 14 14 14 15 15 15 14 13 13 13 14 14 13 13 13 13 14 14 15 15 16 16 16 15 15 15 15 15 15 15 15 15 15 15 15 15 15 15 15 15 15 15
9 10 11 11 11 11 11 11 11 11 11 12 12 12 12 12 12 12 13 13 14 14 15 15 15 15 15 15 14 14 14 14 13 13 12 13 13 13 14 14 14 14 15 15 15 16 16 16 16 16 15 15 15 15 15 15 14 14 14 15 15 15 15 15 15 15 15 15 15
8 9 10 11 11 11 11 11 11 11 11 11 11 12 12 12 12 12 13 13 14 15 15 14 14 14 14 14 13 14 13 13 12 12 12 13 13 14 14 15 15 16 16 16 16 16 16 15 15 15 15 15 15 15 15 15 14 14 14 15 15 15 14 14 14 14 14 14 15
7 8 9 10 10 10 11 11 11 11 11 11 11 11 11 11 11 11 12 12 13 14 14 14 13 12 12 12 12 13 13 13 13 12 12 13 13 14 15 15 16 16 16 15 15 16 16 15 15 15 15 15 14 14 14 14 14 14 14 14 14 14 14 14 14 14 14 14 15
6 7 8 8 9 9 9 10 10 10 10 11 11 11 11 11 11 11 11 11 12 13 13 13 13 12 12 12 12 13 13 14 14 14 13 14 14 14 15 15 15 15 15 15 15 15 15 15 15 15 15 14 14 14 14 14 14 14 14 14 14 14 14 14 14 14 14 14 15
6 6 7 7 8 8 8 9 9 9 9 10 10 11 11 11 11 11 11 11 11 12 12 13 12 12 12 12 12 13 13 14 14 14 14 15 14 14 15 15 15 14 14 14 15 15 15 15 15 15 15 14 14 14 14 14 14 14 14 14 14 14 14 14 14 14 14 14 15
5 5 6 6 7 7 7 8 8 8 9 9 9 10 10 11 11 11 12 12 11 11 12 12 12 12 12 12 13 13 13 13 14 14 14 15 15 15 15 15 14 14 13 14 14 15 15 15 15 15 15 14 14 14 14 14 13 13 13 13 14 14 14 14 15 15 14 14 14
4 5 5 6 6 6 6 7 7 8 8 9 9 10 10 11 11 12 12 12 12 12 12 12 12 13 13 12 13 13 13 13 13 13 14 14 15 15 15 15 14 14 13 14 14 15 15 15 15 15 15 14 14 14 13 13 13 13 13 13 13 14 14 14 14 14 14 14 14
4 4 5 5 5 5 6 6 6 7 7 8 9 9 10 11 11 12 12 12 12 12 12 12 12 12 12 12 12 12 12 13 13 13 13 13 14 14 14 14 14 13 13 14 14 14 15 15 15 14 14 14 14 13 13 13 13 13 13 14 14 14 14 14 14 14 14 14 14
3 4 4 4 4 5 5 5 6 6 7 7 8 9 9 10 11 12 13 13 13 12 12 12 11 11 11 11 11 11 11 11 12 12 13 13 13 13 13 13 13 13 13 13 14 14 14 14 14 13 13 13 13 13 13 13 13 12 12 13 13 14 14 14 14 14 14 14 14
3 3 3 4 4 4 4 5 5 6 6 7 7 7 8 9 10 11 12 13 13 12 11 11 11 10 10 10 10 10 10 10 11 11 12 12 13 13 13 13 13 13 13 13 13 13 13 13 13 13 13 13 12 12 12 12 11 11 11 11 12 12 13 14 14 14 14 14 14
2 3 3 3 3 3 4 4 5 5 5 6 6 6 7 7 8 9 10 11 11 10 10 9 9 8 8 8 8 9 9 9 9 10 11 11 12 12 12 12 12 13 13 13 13 13 12 12 12 12 12 12 12 11 11 11 11 10 10 10 10 10 11 11 12 13 14 14 14
2 2 3 3 3 3 3 3 4 4 5 5 5 5 5 6 6 7 7 8 8 8 8 7 7 7 7 7 7 7 7 7 8 8 9 10 10 10 10 10 11 12 12 13 13 12 12 11 11 12 11 11 11 11 10 10 10 9 9 9 9 9 10 11 11 12 13 13 14
2 2 2 2 2 3 3 3 3 3 4 4 4 4 4 5 5 5 6 6 6 6 6 6 6 6 6 6 6 6 6 6 6 6 7 8 8 9 8 8 9 9 11 12 12 12 11 11 11 12 11 11 10 9 9 9 9 8 7 8 8 9 9 10 11 11 12 12 13
2 2 2 2 2 2 2 2 3 3 3 3 3 3 3 4 4 4 4 5 5 5 5 5 5 5 5 4 4 4 4 5 5 5 6 6 7 7 7 7 7 8 9 10 11 11 11 11 12 11 11 10 9 8 8 8 7 7 7 7 7 7 8 9 10 10 11 12 12
1 1 2 2 2 2 2 2 2 2 2 2 2 2 2 3 3 3 3 4 4 4 3 3 3 3 3 3 3 3 3 4 4 4 4 5 5 5 6 6 6 6 7 8 9 10 11 11 12 11 10 9 8 7 7 7 7 7 6 6 5 6 7 8 9 9 10 11 12
1 1 1 1 1 1 2 2 2 2 2 1 1 2 2 2 2 2 2 2 2 2 2 2 2 1 1 1 2 2 2 2 3 3 3 3 4 4 5 5 5 6 6 7 8 9 10 11 11 11 10 8 7 7 7 6 6 6 5 5 5 5 5 6 7 7 8 9 10
1 1 1 1 1 1 1 1 1 1 1 1 1 1 1 1 1 1 1 1 1 1 1 1 1 1 1 1 1 1 1 1 1 2 2 2 3 3 4 4 5 5 6 6 7 8 9 10 10 9 9 8 7 7 6 5 5 4 4 4 4 4 4 4 5 5 6 7 8
0 1 1 1 1 1 1 1 1 1 1 1 1 1 1 1 0 1 1 0 0 0 0 0 -0 -0 -0 -0 -0 -0 -0 -0 0 0 1 1 2 2 3 3 4 5 5 6 6 7 8 8 8 8 8 7 7 6 5 5 4 3 3 3 3 3 3 3 4 4 5 5 7
0 0 0 1 1 1 1 1 1 1 1 0 0 0 0 0 0 0 -0 -0 -0 -0 -0 -0 -1 -1 -1 -1 -1 -1 -1 -1 -1 -1 -0 0 0 1 2 2 3 4 4 5 6 6 6 7 7 7 7 7 6 5 5 4 3 3 3 3 3 2 2 2 3 3 3 4 5
Height
651 651 650 650 649 649 648 648 647 648 648 648 648 648 648 647 646 644 641 639 636 634 632 631 630 630 631 633 635 636 637 639 641 643 645 647 648 650 651 652 654 655 657 659 661 662 665 667 669 671 672 673 675 676 678 680 681 683 685 687 689 690 692 693 695 696 698 700 701
646 646 645 645 644 644 644 644 644 644 644 644 645 645 645 644 643 641 639 637 634 632 631 630 628 628 629 630 631 633 635 636 638 641 642 644 646 647 649 650 651 653 655 656 658 660 662 664 667 669 670 671 673 675 676 678 679 681 683 685 687 688 690 691 693 695 696 698 699
641 641 640 640 639 639 639 639 639 640 640 641 641 641 641 641 640 639 637 634 632 631 630 629 627 626 626 627 629 630 632 633 636 638 640 642 643 645 646 648 649 651 653 654 656 658 660 662 664 666 669 670 672 673 674 675 677 679 681 683 685 686 688 690 691 693 695 696 697
636 635 634 633 633 633 634 634 634 635 636 636 637 638 638 638 637 636 634 632 631 629 628 627 626 625 623 624 626 627 629 631 633 635 637 639 641 643 644 646 647 649 651 652 654 656 657 659 662 665 667 669 671 671 672 673 675 677 679 681 683 685 686 688 689 691 693 694 696
630 628 627 627 626 627 628 628 629 631 631 633 634 634 635 634 634 633 632 630 628 627 626 625 625 624 622 621 623 625 626 628 630 632 635 637 639 641 642 644 645 647 649 650 652 654 655 657 660 663 666 668 669 670 670 671 673 675 677 679 681 682 684 686 687 689 691 692 694
624 622 621 620 621 622 623 624 625 626 627 629 630 631 631 631 631 631 629 627 626 625 624 624 623 622 621 620 621 622 624 626 628 630 632 634 636 638 640 641 643 645 647 648 650 652 653 656 658 661 664 666 667 668 669 670 672 674 676 677 679 681 682 684 686 687 689 690 692
618 616 615 615 616 617 619 619 620 621 623 625 626 626 627 627 627 627 626 625 624 624 623 622 621 621 620 619 620 621 623 624 625 627 630 632 634 636 638 640 641 643 645 646 648 650 652 654 657 660 663 665 666 666 667 668 670 672 674 676 677 679 680 682 683 685 687 688 690
612 611 611 611 612 613 614 615 616 618 620 621 622 623 623 624 625 624 624 624 623 622 621 620 620 619 619 619 620 621 622 622 623 625 627 630 632 634 636 638 639 641 643 645 646 649 651 653 656 659 662 663 664 665 665 666 668 670 672 673 675 677 678 680 681 683 685 686 688
609 608 608 609 610 610 611 612 613 615 617 618 619 620 621 622 622 622 622 622 621 620 619 618 618 618 618 619 621 621 621 621 621 623 625 628 630 632 634 636 637 639 641 643 645 647 649 652 656 658 660 661 662 662 663 665 666 668 670 672 674 675 677 678 680 681 683 685 686
606 605 605 606 607 608 609 610 611 613 615 616 617 618 619 620 620 620 620 619 619 619 618 617 616 616 617 619 620 621 621 621 621 621 623 626 628 630 632 634 636 638 640 641 643 645 648 651 655 657 658 659 660 661 661 663 665 666 668 670 672 674 675 676 678 680 681 683 684
605 604 603 604 605 606 607 609 610 611 613 614 615 616 617 617 618 618 618 618 618 617 616 615 615 615 616 618 619 620 620 620 620 621 622 624 626 628 630 632 634 636 638 640 642 644 647 651 653 655 656 657 658 659 660 662 663 665 667 668 670 672 673 675 676 678 680 681 682
603 602 602 602 603 605 606 608 609 610 611 612 613 614 615 615 615 616 616 616 616 615 614 614 614 614 616 617 618 619 619 619 619 619 621 622 624 626 629 631 633 635 637 639 641 643 646 649 651 653 654 655 656 657 659 660 662 664 665 667 669 670 672 673 675 676 678 679 681
603 601 601 601 602 604 605 606 607 608 610 611 611 612 613 613 613 614 614 614 614 613 613 613 613 614 615 616 618 618 618 618 618 618 619 621 623 625 627 630 632 634 636 638 640 642 645 647 649 651 652 653 654 656 657 659 661 662 664 665 667 669 670 671 673 675 676 677 679
602 601 601 601 602 603 604 605 606 607 608 609 610 611 611 611 612 612 612 612 612 612 612 612 612 613 614 616 616 618 618 617 617 617 618 620 622 624 626 628 631 633 635 637 639 641 643 645 647 649 650 651 653 654 656 658 659 661 662 664 666 667 669 670 671 673 674 676 677
602 601 600 601 601 602 603 603 604 605 605 606 607 608 609 610 610 610 610 610 610 610 611 611 611 612 613 614 615 617 618 617 617 617 618 619 621 623 625 627 630 632 634 636 638 640 642 644 646 648 649 651 652 653 655 656 658 659 661 662 664 666 667 669 670 671 673 674 675
603 601 601 601 601 602 602 602 603 603 604 604 605 606 607 608 608 607 607 607 608 608 609 609 610 610 611 613 614 616 617 617 616 617 618 619 620 621 624 626 628 631 633 635 637 639 642 644 646 647 649 650 651 653 654 656 657 658 660 661 663 665 666 667 669 670 671 672 673
603 602 601 601 601 601 601 601 602 602 603 603 604 605 605 606 606 606 606 606 607 607 607 607 608 609 611 612 614 615 616 617 617 617 618 618 619 621 623 625 627 630 632 634 637 639 642 644 646 647 648 649 650 652 653 655 656 657 659 661 662 663 665 666 667 669 669 670 671
603 603 602 601 601 601 601 600 601 601 601 601 602 603 604 604 604 605 606 606 606 607 607 607 608 609 609 610 612 614 615 616 616 616 616 617 618 620 622 624 627 629 631 634 637 639 641 643 645 646 647 648 650 651 652 654 655 657 658 660 661 662 664 665 666 667 668 669 669
603 603 602 602 601 601 600 599 598 598 599 599 600 601 602 602 603 604 605 606 606 606 607 607 607 607 607 607 609 611 612 613 614 614 616 617 618 620 621 624 626 629 631 634 636 639 641 642 644 645 646 647 649 651 652 653 655 656 657 659 660 661 662 663 665 666 666 667 667
603 603 602 602 601 601 600 599 597 596 596 596 597 599 600 601 602 602 603 604 605 605 606 606 606 605 605 605 606 608 610 611 612 613 615 616 618 620 621 623 626 629 632 634 636 638 640 642 643 644 645 646 648 650 651 652 654 655 656 657 659 660 661 662 663 664 665 666 666
603 603 603 602 601 601 600 599 597 596 595 594 595 596 597 599 599 600 601 601 602 602 603 603 602 602 603 604 605 607 608 610 611 613 615 617 618 620 622 625 627 630 632 634 636 638 639 641 642 643 644 646 647 648 650 651 652 654 655 656 657 658 659 660 661 662 663 664 665
602 602 602 602 602 601 600 599 597 596 595 594 593 594 595 596 597 598 598 599 600 600 600 600 600 601 602 603 605 606 607 609 611 614 616 619 620 621 623 626 628 630 632 634 636 637 638 640 641 642 643 645 646 647 649 650 651 652 654 655 656 657 658 659 660 661 661 662 663
603 602 601 601 601 601 600 599 598 597 595 594 594 594 595 596 596 596 596 597 597 598 598 598 599 600 601 603 605 606 607 609 613 616 618 620 621 622 624 626 628 630 631 632 634 636 637 638 640 641 642 644 645 646 647 649 650 651 652 654 655 656 657 658 658 659 660 661 661
605 603 601 601 600 599 599 599 599 598 597 597 596 596 596 597 597 596 596 597 597 597 597 598 599 601 603 605 606 607 609 611 614 616 618 620 621 623 625 626 628 629 630 631 632 634 636 637 638 640 641 642 644 645 646 648 649 650 651 652 653 654 655 656 657 658 659 659 660
607 605 603 601 600 600 599 599 599 599 600 600 600 599 600 601 601 601 601 600 599 598 598 599 601 604 606 607 607 608 610 611 613 615 617 619 621 622 624 626 626 628 629 631 632 633 634 636 637 638 640 641 643 644 645 646 648 649 650 651 651 652 653 654 656 657 657 657 658
609 607 605 603 601 600 599 598 598 598 599 600 600 601 602 603 603 603 604 604 602 600 600 601 602 605 607 608 607 607 609 611 612 614 615 617 620 621 623 624 626 627 629 630 631 632 633 634 636 637 639 640 642 643 644 645 646 647 648 648 650 651 652 653 654 655 656 656 657
611 608 606 605 603 601 600 599 598 598 598 599 600 601 601 602 602 603 603 604 603 602 602 601 602 604 606 606 606 606 608 610 611 613 615 617 619 621 622 623 625 626 628 629 630 631 632 633 635 636 637 639 640 641 642 643 644 645 646 647 648 649 651 651 652 653 654 655 656
612 610 608 607 605 604 602 601 600 599 599 599 599 599 600 600 601 601 602 603 603 604 603 602 603 604 605 606 606 607 608 610 611 613 615 616 618 619 621 622 624 626 627 628 629 630 631 632 634 635 636 638 639 640 641 641 643 644 646 646 647 648 649 650 651 652 653 654 654
614 612 610 609 607 606 604 603 602 601 600 600 599 599 599 599 599 599 600 601 602 603 603 603 603 604 605 606 606 607 608 610 612 613 615 616 617 619 620 622 624 626 627 628 629 630 631 632 633 635 636 637 638 639 640 642 643 644 645 646 646 646 647 648 649 650 651 652 653
615 614 612 610 609 607 606 605 604 603 602 601 600 600 599 599 598 598 599 600 601 601 602 603 603 604 605 606 606 607 608 610 611 613 614 616 617 619 621 622 624 625 626 627 628 629 631 632 633 634 636 636 638 639 641 642 644 644 645 645 645 645 645 646 647 648 649 650 651
617 615 613 612 610 609 608 606 606 604 603 602 601 600 600 599 599 598 598 599 600 601 601 602 603 603 604 605 606 607 608 610 611 612 613 615 616 617 619 621 623 625 626 627 628 629 630 631 633 634 635 636 638 640 641 642 643 643 643 643 643 643 644 644 645 645 646 648 650
619 617 615 614 612 611 610 608 607 606 604 602 601 601 601 600 599 599 598 599 599 600 601 601 603 604 605 606 607 608 609 611 611 612 614 615 616 618 620 621 623 624 625 626 627 629 630 631 632 633 634 636 637 639 640 641 642 642 642 642 642 642 642 643 643 644 645 647 648
621 619 617 616 614 613 611 610 608 606 605 604 603 603 602 602 601 600 599 599 600 601 601 602 604 605 606 607 609 610 611 612 613 614 615 616 617 618 620 621 623 624 625 626 627 628 629 631 631 633 634 636 637 639 640 641 641 642 642 642 642 641 641 641 642 643 645 646 648
623 621 619 618 616 615 613 611 610 608 607 606 605 605 605 604 603 602 601 601 601 602 603 604 606 607 608 609 610 611 613 614 615 615 616 617 618 620 621 622 623 624 625 626 626 627 629 631 631 633 634 636 637 638 640 641 642 643 643 643 642 641 641 641 641 642 644 646 648
625 623 622 620 618 616 615 613 611 610 609 608 608 607 607 606 606 605 604 603 603 604 605 607 608 609 610 611 613 614 615 616 616 617 618 619 620 621 623 624 625 626 626 626 626 627 629 630 631 632 634 636 637 639 640 641 642 642 642 641 642 642 642 642 642 643 644 646 648
627 626 624 622 621 619 617 616 614 612 611 611 611 610 610 609 608 608 607 606 605 606 608 609 610 611 613 614 616 616 617 618 619 620 621 621 622 623 625 626 627 628 628 627 626 627 628 630 631 633 635 636 638 639 640 641 641 640 640 643 645 645 644 643 643 643 645 646 648
630 628 626 624 623 621 619 618 616 615 615 614 614 613 613 612 611 611 611 609 608 609 611 612 614 615 616 617 618 619 620 621 621 622 623 624 625 626 626 628 629 630 630 629 627 627 628 630 631 633 635 636 638 639 639 638 638 640 643 647 648 647 645 644 644 645 646 648 650
632 630 628 626 625 623 622 621 619 618 618 617 617 616 616 615 615 615 614 613 613 613 615 616 617 618 619 620 621 622 623 623 623 624 625 626 627 628 628 629 631 632 632 631 629 628 628 630 632 634 635 637 637 637 637 638 640 644 647 650 650 648 647 646 647 648 649 651 652
634 632 630 629 627 626 624 623 622 622 621 621 620 619 619 618 618 618 618 617 617 617 617 618 620 622 622 622 623 624 625 626 626 626 627 628 629 630 629 630 632 633 633 632 630 629 630 631 633 635 636 636 636 636 638 642 646 649 651 651 651 650 650 650 650 651 652 654 655
636 634 632 631 630 628 627 626 626 625 624 624 623 623 622 622 622 622 622 621 621 621 621 622 624 625 625 624 625 626 627 628 628 629 630 631 631 631 631 631 632 633 634 633 632 632 632 633 635 636 636 636 637 640 643 648 651 653 653 652 651 651 652 652 653 654 655 656 657
638 636 635 633 632 631 630 629 629 628 627 627 627 626 626 626 626 626 625 625 624 624 624 626 627 627 627 627 627 627 629 630 631 632 632 633 633 633 632 633 633 634 634 634 634 634 635 636 637 637 638 639 641 645 649 652 654 655 654 653 652 652 653 654 655 656 658 659 660
Wind_Speed
32 32 31 30 29 29 29 30 30 31 31 31 31 31 31 31 32 33 34 34 33 31 30 31 32 33 33 34 35 36 37 37 37 38 38 39 39 39 38 37 36 36 36 36 36 34 33 34 33 32 30 30 30 30 30 30 30 30 29 29 29 28 28 28 28 28 28 26 24
34 35 34 33 32 31 30 30 30 30 31 31 31 32 32 32 32 33 34 35 34 32 30 30 32 34 34 33 34 35 36 37 38 38 38 38 38 39 38 38 37 37 36 36 35 33 33 33 33 32 30 29 29 29 30 30 29 29 29 29 29 28 29 28 28 28 28 27 25
36 36 37 36 34 33 31 30 30 30 31 32 32 32 32 32 32 33 34 35 35 34 31 29 31 34 35 34 33 34 36 37 38 38 38 38 38 38 38 38 37 37 36 36 35 34 33 33 33 32 30 29 28 29 29 29 28 28 28 29 29 28 28 28 28 27 27 26 25
37 38 39 38 37 36 34 32 31 31 32 32 32 32 32 32 32 33 34 35 35 34 32 30 30 32 35 34 33 34 36 37 38 38 38 38 38 38 38 38 37 37 37 36 35 34 33 32 32 30 29 29 29 29 28 28 27 27 28 28 28 28 27 27 27 26 26 26 25
37 39 39 38 38 37 36 35 34 33 32 31 31 31 32 32 33 33 34 34 34 33 33 32 31 31 34 35 34 34 35 37 38 38 38 38 38 37 38 38 37 37 36 35 34 33 33 32 31 29 28 29 29 28 28 27 27 27 27 26 27 27 27 27 26 25 26 26 26
38 38 37 37 37 36 35 35 35 34 33 31 31 31 31 32 32 33 34 34 34 34 33 33 33 33 33 34 34 34 35 36 37 37 37 38 38 38 37 37 37 37 36 35 34 33 33 32 30 28 28 28 28 28 28 27 27 27 26 25 25 25 26 26 25 24 25 25 26
36 34 32 33 35 35 35 35 35 34 32 31 31 32 32 32 33 34 35 35 34 33 32 32 33 34 33 34 34 35 35 35 36 37 37 37 37 37 36 36 36 36 36 35 34 33 32 31 29 28 27 28 28 27 27 27 27 27 27 26 24 24 25 26 25 24 24 25 26
31 28 28 30 32 34 35 35 34 32 31 30 31 32 33 33 34 34 35 34 33 32 31 31 32 33 33 33 33 34 34 34 35 36 36 36 36 36 36 35 36 36 36 35 34 33 31 30 29 27 27 28 27 27 27 27 27 27 27 26 24 24 25 25 25 25 25 26 27
24 23 26 28 31 33 33 33 31 30 29 30 31 32 32 33 34 34 34 34 33 32 30 30 31 32 32 32 34 33 32 33 34 35 35 35 35 35 35 35 35 35 36 36 35 33 31 30 29 28 28 28 27 26 26 27 27 27 27 26 24 24 24 25 25 25 25 26 27
19 19 23 27 29 30 30 29 29 28 29 30 30 31 32 33 34 34 34 33 33 32 30 29 28 29 32 33 34 33 32 31 33 34 35 35 35 35 34 34 34 35 35 36 34 33 32 30 30 30 30 29 27 26 26 26 26 26 26 25 24 23 23 25 26 26 26 26 26
18 16 20 24 26 27 27 27 26 27 28 29 30 30 31 32 33 33 33 32 31 31 29 27 26 27 30 33 33 34 33 32 32 33 34 34 34 34 34 33 33 34 35 35 33 32 32 31 30 31 30 29 28 26 25 25 26 26 26 25 24 23 23 25 26 26 26 26 26
18 14 15 20 23 24 24 25 24 25 26 28 29 29 30 30 31 31 31 31 30 29 28 26 25 26 28 31 32 33 34 33 31 32 33 33 33 33 32 32 32 33 33 33 32 31 30 30 30 30 30 29 27 26 24 25 25 26 26 25 24 23 23 24 26 27 27 27 26
14 10 10 14 18 21 22 23 23 23 25 26 27 28 29 29 30 30 29 29 28 27 26 26 26 26 27 29 31 33 33 32 30 30 31 31 31 31 31 31 31 31 31 31 30 29 28 28 28 29 28 27 25 24 24 24 25 25 25 25 24 23 23 24 25 26 27 27 26
11 7 7 12 16 19 21 22 22 22 24 25 27 28 28 29 29 29 29 28 27 26 25 26 26 26 27 29 31 33 33 30 29 28 29 29 30 30 30 30 30 30 30 30 29 27 26 26 27 27 27 26 23 23 24 24 25 25 26 26 25 24 24 23 24 25 26 27 27
10 7 7 11 14 17 20 22 22 22 23 24 26 27 28 28 29 29 29 29 28 27 25 25 26 27 28 30 31 33 32 26 25 26 27 27 28 28 29 29 30 30 29 28 27 26 26 26 26 26 27 26 23 22 23 23 24 25 26 26 26 25 25 24 24 25 26 27 27
9 7 7 10 13 16 19 20 20 21 22 24 25 27 28 28 29 29 30 30 30 30 28 27 27 28 29 31 33 34 31 23 22 24 25 25 25 26 27 28 28 28 28 26 25 25 26 25 25 26 26 26 24 22 21 21 23 24 25 26 26 26 26 25 25 24 25 27 27
8 7 8 10 13 14 14 15 16 17 20 22 24 26 27 28 28 28 29 31 32 31 31 30 29 27 28 31 34 34 30 24 21 21 21 22 23 24 25 26 26 26 26 25 24 24 25 25 25 25 25 25 24 23 21 21 21 23 24 26 27 27 27 27 26 25 25 26 27
5 5 7 10 11 12 11 12 13 13 15 17 19 21 22 23 23 24 26 27 28 29 29 29 26 23 22 25 30 30 27 23 20 18 18 19 20 22 23 23 23 23 24 24 24 25 26 26 25 24 24 25 24 23 22 21 21 22 23 25 26 27 28 28 27 26 25 26 27
4 4 4 6 7 8 11 13 14 14 13 13 14 15 16 16 17 18 19 20 21 22 22 21 19 17 16 19 22 23 22 20 17 16 16 17 19 21 22 22 21 22 23 24 25 26 26 26 25 24 24 24 24 24 24 23 22 22 23 24 25 27 28 29 28 27 25 25 26
6 5 4 4 3 3 6 10 14 16 15 14 14 14 13 13 13 13 14 16 17 17 16 15 14 12 11 12 14 16 17 17 17 16 16 16 18 20 21 21 22 23 25 26 26 27 27 27 25 24 23 23 24 24 24 25 24 24 24 24 25 27 28 29 29 28 26 24 25
11 8 6 4 3 2 3 6 10 13 14 14 14 15 14 13 13 12 13 14 16 16 15 14 12 11 10 10 11 13 15 17 17 17 16 17 18 20 21 23 24 25 27 27 27 28 27 26 24 23 23 23 24 24 25 25 25 25 25 24 25 26 27 28 29 29 27 25 24
18 14 9 5 3 2 3 4 7 8 9 10 11 12 12 11 11 11 12 12 13 13 13 13 12 12 11 11 11 13 15 16 17 18 19 20 20 21 23 24 25 26 27 27 27 26 25 24 23 23 23 23 24 25 25 25 25 25 25 25 25 25 26 27 28 29 29 28 26
24 20 15 8 4 2 2 3 5 6 6 7 7 7 7 6 7 8 9 10 10 10 10 10 12 13 14 14 13 13 14 17 19 21 23 22 22 22 23 25 25 25 25 25 25 24 24 23 23 23 23 23 24 25 25 25 24 24 24 25 26 26 26 26 27 28 29 29 28
24 23 20 14 8 4 2 3 4 4 5 5 5 5 5 4 4 5 7 9 10 10 9 10 12 15 17 19 18 17 16 19 22 23 23 22 21 22 22 23 23 23 23 23 24 24 24 24 24 24 24 24 24 25 25 25 25 25 25 26 26 26 26 26 27 27 27 28 28
23 23 21 19 15 11 8 5 3 2 1 1 2 3 3 3 4 6 8 10 13 14 14 14 15 18 21 23 23 21 19 20 22 22 21 21 21 21 21 21 21 20 21 21 23 25 26 26 26 25 24 24 24 24 24 24 25 26 25 24 24 24 24 25 26 26 26 26 28
22 22 21 20 19 17 16 14 12 10 8 5 2 0 2 4 5 8 10 12 14 17 18 19 19 20 22 23 23 22 20 19 20 20 20 20 20 21 20 20 19 19 19 20 23 25 27 28 27 26 25 23 23 24 23 21 21 22 22 19 20 21 22 23 25 25 25 26 28
22 21 21 20 19 18 18 16 15 13 12 10 8 6 3 3 4 7 10 12 13 14 16 17 16 18 19 19 20 20 20 19 18 19 19 18 19 20 20 19 18 17 17 18 21 23 25 26 26 26 25 24 22 22 21 21 21 20 19 19 19 20 21 22 23 23 23 24 27
23 21 20 19 18 18 17 17 16 15 14 12 12 10 9 7 5 5 7 10 11 12 12 12 13 15 16 15 15 16 17 17 16 16 16 15 16 17 18 18 17 16 16 16 19 21 22 23 23 24 24 24 22 22 21 20 19 19 20 21 22 23 24 24 24 24 23 23 25
23 21 20 19 18 17 17 17 16 15 14 12 12 11 10 9 8 7 6 7 9 11 12 12 12 12 12 11 9 11 12 13 13 14 13 13 12 12 13 14 15 16 16 16 17 18 19 19 20 22 23 23 22 20 19 19 20 21 22 24 24 26 27 27 27 25 22 22 24
22 21 20 19 18 18 17 17 16 15 13 12 11 10 9 8 8 8 7 7 8 9 10 11 9 8 9 11 11 12 12 11 11 11 11 11 11 10 10 11 14 16 17 17 16 16 17 18 19 21 22 21 19 17 16 17 19 20 21 23 25 27 28 29 28 28 27 26 26
22 21 20 19 18 18 17 17 16 15 14 14 13 12 10 7 5 5 6 6 6 6 8 10 10 11 13 13 13 12 11 10 10 9 9 10 10 9 9 11 12 14 15 15 15 15 16 18 19 20 19 18 15 13 12 11 11 11 13 16 20 24 27 28 28 27 27 26 27
22 21 20 19 18 18 17 17 16 16 16 17 17 17 15 12 8 3 2 4 6 8 11 13 14 15 16 15 14 13 12 11 9 8 8 8 8 8 8 9 10 11 12 13 14 15 16 16 17 16 15 14 12 10 8 6 5 4 4 6 9 14 20 23 25 26 27 27 28
21 20 20 19 18 18 17 17 17 17 18 19 20 19 18 16 14 12 12 13 15 16 17 19 20 20 20 19 17 16 15 14 13 11 9 8 8 7 7 7 8 9 11 12 14 15 15 15 15 15 13 13 12 12 12 12 11 11 10 10 8 7 7 10 14 19 24 26 27
21 20 19 19 18 18 18 18 18 19 20 20 20 20 19 19 18 18 19 20 22 22 23 23 23 23 22 21 20 19 18 18 17 16 13 11 10 9 8 7 7 9 12 16 17 18 18 17 17 17 16 16 17 18 19 19 19 18 18 18 18 17 16 14 13 13 16 20 23
20 20 19 19 19 19 19 19 19 20 20 21 20 20 20 20 20 19 20 22 25 26 25 25 26 26 26 25 24 23 23 24 23 22 21 19 17 16 15 15 15 15 17 20 21 21 21 21 20 20 20 21 23 24 24 24 24 24 24 24 23 22 21 20 19 17 16 16 17
20 20 19 19 19 20 20 20 21 21 21 21 20 20 21 21 21 20 21 24 27 28 28 27 28 27 27 27 28 27 27 26 26 26 26 25 24 24 23 23 22 22 24 26 26 26 25 23 22 22 23 25 26 27 27 27 28 29 29 28 27 27 26 25 24 22 20 19 17
21 20 19 19 20 20 21 21 22 22 21 21 21 21 21 22 22 22 23 25 28 29 29 29 29 29 28 29 28 28 28 28 28 28 28 28 27 27 26 26 24 24 26 29 30 30 28 25 23 23 25 27 27 27 27 28 29 30 30 29 29 29 29 29 28 27 24 22 21
21 20 20 20 21 21 22 22 22 22 22 22 21 21 22 22 23 23 23 25 27 28 29 29 29 29 29 30 31 30 30 30 30 30 29 29 28 28 28 28 26 25 26 29 31 32 30 27 26 26 27 28 28 28 29 29 29 28 28 28 28 30 32 32 32 31 30 28 26
21 21 21 21 21 22 23 23 23 23 22 22 23 23 23 23 23 23 24 26 27 28 29 29 29 29 30 32 32 33 33 32 32 32 31 30 29 30 30 30 29 28 28 30 32 33 32 31 30 30 30 29 29 30 30 29 27 25 25 26 28 30 32 33 34 34 34 32 30
21 21 22 22 23 23 24 24 24 23 23 24 24 24 24 23 23 24 25 26 28 29 30 30 30 29 30 33 34 34 34 34 33 32 31 30 30 31 33 33 32 31 31 31 32 33 33 33 32 32 31 31 31 31 29 26 23 21 22 23 25 27 29 32 33 34 35 35 34
22 22 23 23 24 24 24 25 25 25 25 25 24 24 24 24 24 25 25 26 28 29 30 30 30 31 32 34 35 35 36 35 34 33 33 33 32 33 33 34 34 34 33 32 32 33 33 32 32 32 32 32 31 29 26 23 21 20 20 22 24 26 28 30 32 33 34 34 34
Wind_Direction
256 253 250 247 245 244 243 241 239 238 236 236 237 237 238 240 241 242 243 244 247 249 245 234 224 217 213 210 207 205 204 203 204 205 207 207 208 208 208 208 208 209 210 210 211 209 208 206 208 209 208 206 204 202 201 200 199 200 201 203 203 204 203 202 202 203 206 208 211
257 253 250 246 243 241 240 239 237 235 234 234 234 235 236 237 239 240 241 242 244 248 248 241 228 219 213 209 206 204 202 202 203 204 205 206 207 207 207 207 207 208 209 210 210 208 206 204 205 206 207 206 206 206 204 201 198 198 200 201 202 203 203 203 204 204 205 207 209
257 253 250 247 242 238 236 235 234 232 232 231 232 232 233 235 236 238 240 241 243 248 251 248 234 222 214 210 206 203 201 200 201 202 204 205 206 206 206 206 206 207 208 209 209 208 205 203 203 203 205 206 209 208 205 200 198 197 199 200 201 202 203 204 205 205 206 207 208
257 254 250 244 239 235 232 231 230 229 229 229 230 230 231 233 235 237 240 243 245 250 254 254 243 227 216 210 205 202 200 199 200 201 203 204 205 205 205 205 206 207 208 208 208 207 205 203 201 201 203 206 208 206 203 199 198 198 199 200 201 201 202 203 204 204 205 207 208
258 253 248 241 235 230 228 228 227 227 226 226 227 228 229 231 233 236 239 243 246 250 254 256 250 235 221 212 206 202 199 198 198 199 201 203 204 205 204 204 205 206 207 208 208 207 205 203 200 200 203 206 206 203 200 198 198 198 199 200 200 200 200 202 203 203 205 206 207
261 255 247 239 232 227 225 225 225 224 224 224 224 225 227 229 231 234 236 240 244 247 251 255 253 244 229 216 208 203 200 197 197 198 199 201 203 204 204 204 205 205 206 208 208 207 205 201 198 200 204 207 207 203 199 198 198 199 199 199 199 198 198 200 200 201 202 204 206
265 256 243 232 228 225 224 223 222 221 220 220 222 223 225 227 229 232 234 237 241 245 250 253 254 246 233 220 212 207 203 197 195 196 198 200 201 203 204 204 204 205 206 207 208 207 204 200 197 201 207 210 209 204 199 198 197 198 199 198 197 198 199 199 199 198 200 203 205
268 254 238 228 224 223 223 222 219 217 216 218 220 222 225 227 230 232 234 237 240 244 249 252 251 242 231 223 217 212 205 197 193 194 196 198 200 201 203 203 204 204 205 206 207 206 203 199 199 203 208 210 209 204 199 197 196 197 197 198 198 199 199 199 198 197 199 203 205
272 250 234 227 225 224 223 220 216 213 213 216 219 222 225 228 230 233 235 238 241 245 248 249 246 237 229 223 220 216 209 199 193 192 194 197 198 200 201 202 203 204 204 205 206 204 201 199 201 205 208 208 206 202 197 195 194 195 196 197 197 198 199 199 198 198 200 203 204
277 246 229 224 225 225 223 219 215 212 213 216 219 223 226 229 232 233 235 238 243 247 248 244 237 229 223 221 221 219 214 204 195 192 193 195 197 199 200 201 202 203 204 205 205 203 201 200 203 207 209 208 204 200 195 193 193 194 195 196 195 195 196 198 199 200 201 202 204
286 256 232 224 223 222 220 218 214 213 214 217 220 224 227 231 233 235 236 239 245 248 246 239 231 224 219 218 220 219 215 208 197 192 192 194 196 197 199 200 201 202 202 203 203 202 201 201 203 207 208 207 203 198 195 193 194 195 196 197 196 194 194 197 198 199 201 203 204
295 273 240 224 222 219 216 214 213 213 215 218 221 224 229 233 236 237 238 241 246 248 245 237 229 223 219 217 216 215 213 208 199 193 190 192 194 195 197 198 200 201 201 202 202 202 201 200 202 204 205 205 202 197 194 193 194 195 196 197 196 195 195 197 198 199 201 203 204
299 281 241 220 219 216 212 209 211 213 216 218 221 225 230 235 239 241 242 243 244 244 242 236 229 223 218 216 214 212 211 207 201 193 190 190 192 193 195 196 198 200 200 201 201 201 199 199 201 202 203 202 199 196 194 193 193 194 196 198 198 198 197 197 198 199 201 203 205
297 274 230 214 214 213 209 208 210 212 215 218 221 225 230 236 240 243 244 243 242 238 234 228 224 220 218 216 214 212 210 207 201 194 190 189 190 191 193 195 197 199 200 200 201 200 199 199 202 203 202 200 197 195 195 194 193 194 197 199 201 202 202 200 200 200 201 203 206
294 261 219 208 207 206 207 208 210 212 214 216 219 223 228 234 239 242 242 240 237 233 227 221 219 218 217 215 214 213 211 210 201 195 193 191 189 189 191 193 196 198 199 199 199 199 200 201 203 204 202 199 196 195 194 193 193 195 197 200 204 206 207 207 205 203 202 204 207
297 261 219 204 200 202 204 207 209 211 214 216 219 222 226 231 235 236 235 233 230 226 222 219 216 215 214 213 212 212 211 211 202 196 194 191 187 187 189 192 194 196 197 198 198 199 200 202 203 203 200 198 197 196 194 193 194 196 199 202 205 208 210 212 211 208 206 207 208
299 269 237 217 205 202 202 204 206 208 211 214 216 219 223 225 227 224 222 220 219 216 215 214 212 210 207 204 205 206 207 207 202 196 191 186 182 183 185 188 190 193 194 195 196 197 199 200 201 200 198 197 198 198 197 196 196 198 201 204 207 210 212 215 216 214 211 210 210
309 284 257 237 220 210 204 202 203 206 209 209 210 212 215 216 214 210 207 206 205 205 204 205 206 203 197 189 191 195 198 198 195 189 183 178 177 179 181 183 185 187 189 191 192 194 195 197 198 197 196 197 199 201 202 202 201 202 204 206 209 212 214 216 218 219 217 213 213
344 324 291 257 237 221 212 206 201 200 202 204 205 205 205 205 202 199 198 197 197 197 198 199 199 195 185 176 176 181 186 188 184 180 177 177 178 179 180 180 182 184 187 189 191 192 193 195 195 195 195 196 199 203 205 207 207 207 208 210 212 215 217 218 220 221 221 218 215
354 336 314 289 270 247 226 214 205 200 197 199 202 205 206 205 203 202 202 203 204 204 204 202 198 189 177 170 169 174 180 184 183 183 183 184 184 184 184 184 186 188 192 194 194 195 195 195 195 194 194 196 199 203 207 209 211 212 213 214 216 217 219 220 221 222 222 221 217
351 338 320 298 278 279 270 244 220 210 204 203 204 206 208 208 209 210 211 212 211 212 213 211 205 195 182 173 173 179 184 187 189 191 194 195 193 191 191 191 192 194 196 198 198 199 198 196 195 194 196 198 201 204 207 210 212 215 216 217 218 219 221 222 222 223 223 221 218
349 344 337 323 304 298 290 269 242 230 223 219 216 214 211 207 207 209 211 211 212 214 216 218 216 209 198 188 184 186 189 192 195 199 202 203 199 196 195 196 196 195 196 197 197 197 197 197 196 197 198 200 203 205 208 210 213 216 218 219 221 222 223 224 224 223 222 221 219
349 349 350 349 341 314 266 248 244 247 247 242 238 234 227 215 212 212 212 210 206 208 215 222 224 220 212 203 196 193 194 196 201 205 205 203 200 196 194 194 193 191 191 192 193 194 195 197 198 199 201 203 205 208 210 212 215 217 220 221 223 224 225 225 224 223 222 221 219
350 352 356 0 360 347 286 231 232 242 253 259 256 255 249 229 207 202 206 208 200 196 202 214 217 215 210 205 201 198 196 196 201 203 203 200 196 193 191 189 187 186 187 190 192 194 196 197 198 201 204 206 209 211 214 216 218 220 221 223 224 224 225 226 226 226 224 221 218
351 354 359 5 8 9 7 5 353 346 343 311 242 234 225 196 170 167 182 202 204 198 195 199 199 197 195 195 195 193 191 190 192 193 194 194 192 189 187 186 185 185 187 192 196 198 199 200 200 202 205 208 212 215 217 218 219 220 221 221 221 222 225 227 230 230 226 220 217
354 357 1 6 10 12 14 17 20 22 24 26 29 203 206 200 186 175 178 192 202 201 195 193 186 181 181 184 185 186 185 182 181 181 181 183 185 186 184 182 183 185 189 194 199 202 203 204 205 205 206 209 212 215 215 214 214 215 215 217 220 223 225 228 229 227 222 217 216
357 359 3 7 10 11 12 11 10 8 6 2 358 350 324 262 222 199 190 192 195 196 193 189 177 173 177 180 181 182 183 181 179 178 176 173 177 181 184 185 187 190 195 199 201 204 205 207 208 208 208 209 211 211 209 208 210 214 218 222 226 228 229 228 226 222 218 216 216
359 1 3 7 11 12 13 12 10 4 358 353 349 343 333 316 289 247 214 202 200 198 196 190 178 177 181 183 180 179 181 184 185 184 181 177 177 181 187 191 195 201 207 208 205 203 204 206 208 209 209 209 210 210 211 213 219 225 230 231 231 230 230 228 226 223 219 215 214
0 2 5 8 10 12 14 14 13 9 4 358 352 345 335 320 305 286 254 222 208 203 201 196 188 179 171 165 151 146 154 167 178 184 185 181 177 181 188 193 200 208 214 213 207 203 203 206 208 209 208 208 208 211 217 223 227 229 230 230 229 228 228 226 223 220 216 213 211
1 3 5 9 11 13 13 14 14 13 13 12 9 3 352 331 307 287 269 245 224 208 196 186 174 148 124 115 107 106 113 126 144 160 169 171 167 164 168 181 195 206 211 210 206 204 205 206 206 204 203 204 208 217 228 233 233 233 232 231 229 227 225 222 218 215 211 209 206
2 4 7 11 13 14 14 14 16 20 24 27 29 26 21 9 335 288 262 243 214 179 153 139 127 110 98 96 95 95 97 106 118 132 142 144 145 146 152 167 184 198 205 207 206 206 206 204 202 199 199 201 206 216 226 231 232 236 239 238 237 235 230 222 216 208 201 199 197
5 7 10 13 15 16 16 17 20 26 32 36 37 36 34 35 36 47 152 159 140 125 114 106 104 97 92 92 92 92 93 96 103 114 126 136 143 148 155 166 180 190 198 203 202 200 196 193 190 190 192 196 196 193 186 171 164 173 199 221 232 232 229 226 218 207 195 188 184
8 10 13 16 17 18 19 21 25 32 38 41 41 40 39 42 52 69 90 103 106 103 98 94 92 89 88 89 89 89 88 90 94 102 114 128 138 144 151 163 177 187 192 193 190 185 178 173 172 169 165 160 154 145 135 129 124 119 114 111 116 127 154 185 197 198 194 188 181
11 14 17 19 20 21 23 26 30 36 41 44 43 41 42 44 50 61 76 89 95 96 94 92 89 87 87 88 88 87 86 86 88 92 100 111 121 123 119 119 140 163 176 180 177 172 164 158 155 152 147 141 133 125 120 116 113 108 102 97 96 98 105 118 131 153 173 184 187
15 18 21 23 25 26 27 30 34 39 42 44 43 43 44 46 49 57 70 84 90 92 91 89 88 88 87 85 86 85 83 81 82 85 88 94 100 101 99 97 107 126 145 157 162 160 154 150 147 144 138 129 121 116 113 109 106 100 94 91 88 91 97 104 109 117 132 150 166
19 22 25 27 30 31 33 34 37 41 43 44 44 44 46 50 51 58 68 80 86 87 86 85 86 87 85 80 80 79 78 79 79 81 83 87 90 90 90 92 98 110 123 134 142 146 146 145 143 139 132 123 116 111 107 103 97 92 88 86 82 82 86 92 97 104 114 125 137
21 25 29 32 34 35 37 39 42 43 44 45 45 46 48 51 54 58 67 76 81 82 83 83 82 80 79 78 77 77 78 78 79 79 79 81 83 84 85 86 90 97 108 118 127 133 138 141 141 138 129 119 112 107 102 96 92 89 86 82 78 77 80 84 88 94 101 111 123
23 28 32 35 38 39 41 43 45 46 46 46 47 48 51 55 57 60 66 73 78 80 81 80 78 78 79 79 78 77 77 76 77 77 76 74 76 79 81 81 82 87 95 105 115 123 129 133 135 132 125 116 109 102 97 92 90 89 87 83 78 77 78 80 82 84 88 96 107
25 30 35 39 41 43 45 46 47 49 49 50 50 52 54 57 60 63 68 73 77 79 80 79 78 79 79 79 78 75 73 72 73 73 72 71 72 75 77 77 78 81 87 95 104 112 119 123 125 124 119 112 105 100 95 92 91 90 88 85 81 78 77 77 78 78 81 86 94
27 32 37 41 44 46 48 49 50 51 52 53 54 55 56 59 63 67 71 74 76 78 80 80 79 79 78 78 77 74 71 69 68 69 69 69 70 72 74 75 75 77 81 88 95 102 108 112 115 115 112 108 103 99 97 95 94 92 90 87 84 80 77 75 76 75 76 79 85
30 34 38 42 45 47 49 50 51 53 54 55 57 58 60 63 67 70 72 74 75 77 79 80 79 78 77 76 75 73 71 67 65 65 67 68 68 69 70 71 72 73 77 82 89 94 99 103 105 106 106 104 103 101 99 98 95 91 88 86 84 82 78 75 74 74 74 75 79